TimeMDT,TemperatureF,Dew PointF,Humidity,Sea Level PressureIn,VisibilityMPH,Wind Direction,Wind SpeedMPH,Gust SpeedMPH,PrecipitationIn,Events,Conditions,WindDirDegrees,DateUTC
12:15 AM,33.8,23.0,65,29.89,10.0,WNW,10.4,-,N/A,,Clear,300,2014-03-14 06:15:00
12:35 AM,33.8,23.0,65,29.89,10.0,West,10.4,-,N/A,,Mostly Cloudy,270,2014-03-14 06:35:00
12:55 AM,33.8,24.8,70,29.90,10.0,West,11.5,-,N/A,,Scattered Clouds,270,2014-03-14 06:55:00
1:15 AM,33.8,21.2,60,29.90,10.0,West,11.5,-,N/A,,Clear,270,2014-03-14 07:15:00
1:35 AM,32.0,23.0,69,29.90,10.0,West,11.5,-,N/A,,Clear,270,2014-03-14 07:35:00
1:55 AM,32.0,21.2,64,29.91,10.0,West,12.7,-,N/A,,Clear,260,2014-03-14 07:55:00
2:15 AM,32.0,21.2,64,29.91,10.0,West,11.5,-,N/A,,Partly Cloudy,280,2014-03-14 08:15:00
2:35 AM,33.8,21.2,60,29.91,10.0,West,11.5,-,N/A,,Partly Cloudy,280,2014-03-14 08:35:00
2:55 AM,32.0,21.2,64,29.91,10.0,West,10.4,-,N/A,,Mostly Cloudy,270,2014-03-14 08:55:00
3:15 AM,30.2,21.2,69,29.90,10.0,West,9.2,-,N/A,,Scattered Clouds,270,2014-03-14 09:15:00
3:35 AM,28.4,21.2,74,29.90,10.0,West,8.1,-,N/A,,Clear,280,2014-03-14 09:35:00
3:55 AM,28.4,21.2,74,29.89,10.0,West,8.1,-,N/A,,Clear,280,2014-03-14 09:55:00
4:15 AM,26.6,19.4,74,29.89,10.0,NNW,3.5,-,N/A,,Clear,340,2014-03-14 10:15:00
4:35 AM,26.6,21.2,80,29.89,10.0,NW,4.6,-,N/A,,Clear,310,2014-03-14 10:35:00
4:55 AM,28.4,23.0,80,29.89,10.0,WNW,5.8,-,N/A,,Clear,290,2014-03-14 10:55:00
5:15 AM,28.4,19.4,69,29.90,10.0,WNW,5.8,-,N/A,,Clear,300,2014-03-14 11:15:00
5:35 AM,28.4,23.0,80,29.90,10.0,WSW,5.8,-,N/A,,Clear,240,2014-03-14 11:35:00
5:55 AM,28.4,21.2,74,29.90,10.0,SW,4.6,-,N/A,,Clear,220,2014-03-14 11:55:00
6:15 AM,28.4,23.0,80,29.90,10.0,North,3.5,-,N/A,,Clear,360,2014-03-14 12:15:00
6:35 AM,28.4,21.2,74,29.90,10.0,Calm,Calm,-,N/A,,Partly Cloudy,0,2014-03-14 12:35:00
6:55 AM,28.4,21.2,74,29.91,10.0,Calm,Calm,-,N/A,,Scattered Clouds,0,2014-03-14 12:55:00
7:15 AM,28.4,24.8,86,29.90,10.0,Calm,Calm,-,N/A,,Clear,0,2014-03-14 13:15:00
7:35 AM,28.4,21.2,74,29.91,10.0,West,3.5,-,N/A,,Clear,280,2014-03-14 13:35:00
7:55 AM,24.8,21.2,86,29.91,10.0,West,4.6,-,N/A,,Clear,260,2014-03-14 13:55:00
8:15 AM,28.4,23.0,80,29.91,10.0,West,4.6,-,N/A,,Scattered Clouds,260,2014-03-14 14:15:00
8:35 AM,30.2,23.0,75,29.91,10.0,West,4.6,-,N/A,,Partly Cloudy,270,2014-03-14 14:35:00
8:55 AM,32.0,24.8,75,29.91,10.0,West,4.6,-,N/A,,Mostly Cloudy,270,2014-03-14 14:55:00
9:15 AM,33.8,24.8,70,29.90,10.0,WNW,3.5,-,N/A,,Overcast,300,2014-03-14 15:15:00
9:35 AM,35.6,21.2,56,29.90,10.0,West,3.5,-,N/A,,Overcast,280,2014-03-14 15:35:00
9:55 AM,35.6,21.2,56,29.91,10.0,NNW,4.6,-,N/A,,Overcast,330,2014-03-14 15:55:00
10:15 AM,35.6,24.8,65,29.90,10.0,NNE,3.5,-,N/A,,Mostly Cloudy,20,2014-03-14 16:15:00
10:35 AM,37.4,21.2,52,29.89,10.0,NW,4.6,-,N/A,,Partly Cloudy,310,2014-03-14 16:35:00
10:55 AM,39.2,19.4,45,29.88,10.0,Calm,Calm,-,N/A,,Clear,0,2014-03-14 16:55:00
11:15 AM,41.0,17.6,39,29.89,10.0,NNW,5.8,-,N/A,,Clear,340,2014-03-14 17:15:00
11:35 AM,41.0,17.6,39,29.88,10.0,NNE,3.5,-,N/A,,Clear,30,2014-03-14 17:35:00
11:55 AM,42.8,17.6,36,29.87,10.0,NW,6.9,-,N/A,,Clear,320,2014-03-14 17:55:00
12:15 PM,42.8,17.6,36,29.87,10.0,NNW,3.5,-,N/A,,Clear,340,2014-03-14 18:15:00
12:35 PM,44.6,19.4,37,29.86,10.0,South,4.6,-,N/A,,Clear,170,2014-03-14 18:35:00
12:55 PM,44.6,21.2,39,29.85,10.0,SSE,6.9,-,N/A,,Clear,150,2014-03-14 18:55:00
1:15 PM,44.6,19.4,37,29.84,10.0,SE,5.8,-,N/A,,Clear,130,2014-03-14 19:15:00
1:35 PM,46.4,21.2,37,29.84,10.0,SSE,3.5,-,N/A,,Clear,150,2014-03-14 19:35:00
1:55 PM,46.4,21.2,37,29.83,10.0,SE,5.8,-,N/A,,Clear,130,2014-03-14 19:55:00
2:15 PM,48.2,24.8,40,29.82,10.0,SSE,8.1,-,N/A,,Clear,160,2014-03-14 20:15:00
2:35 PM,48.2,23.0,37,29.82,10.0,WSW,3.5,-,N/A,,Clear,240,2014-03-14 20:35:00
2:55 PM,50.0,23.0,35,29.81,10.0,SSE,6.9,-,N/A,,Clear,160,2014-03-14 20:55:00
3:15 PM,48.2,21.2,34,29.81,10.0,SSW,8.1,-,N/A,,Clear,200,2014-03-14 21:15:00
3:35 PM,46.4,23.0,40,29.81,10.0,SE,9.2,-,N/A,,Clear,140,2014-03-14 21:35:00
3:55 PM,48.2,24.8,40,29.81,10.0,SSE,6.9,-,N/A,,Clear,160,2014-03-14 21:55:00
4:15 PM,48.2,24.8,40,29.80,10.0,SE,5.8,-,N/A,,Clear,140,2014-03-14 22:15:00
4:35 PM,48.2,24.8,40,29.80,10.0,ESE,6.9,-,N/A,,Clear,120,2014-03-14 22:35:00
4:55 PM,48.2,24.8,40,29.80,10.0,ESE,5.8,-,N/A,,Clear,120,2014-03-14 22:55:00
5:15 PM,48.2,24.8,40,29.79,10.0,ESE,4.6,-,N/A,,Clear,120,2014-03-14 23:15:00
5:35 PM,48.2,24.8,40,29.79,10.0,SSE,6.9,-,N/A,,Clear,150,2014-03-14 23:35:00
5:55 PM,46.4,24.8,43,29.80,10.0,SE,5.8,-,N/A,,Clear,140,2014-03-14 23:55:00
6:15 PM,46.4,24.8,43,29.79,10.0,SSE,4.6,-,N/A,,Clear,150,2014-03-15 00:15:00
6:35 PM,46.4,24.8,43,29.79,10.0,SE,4.6,-,N/A,,Scattered Clouds,140,2014-03-15 00:35:00
6:55 PM,44.6,24.8,46,29.80,10.0,SSE,5.8,-,N/A,,Partly Cloudy,150,2014-03-15 00:55:00
7:15 PM,44.6,23.0,43,29.79,10.0,SE,4.6,-,N/A,,Clear,140,2014-03-15 01:15:00
7:35 PM,41.0,24.8,53,29.80,10.0,ENE,5.8,-,N/A,,Scattered Clouds,70,2014-03-15 01:35:00
7:55 PM,39.2,26.6,61,29.80,10.0,NE,6.9,-,N/A,,Partly Cloudy,50,2014-03-15 01:55:00
8:15 PM,39.2,24.8,56,29.80,10.0,NNE,6.9,-,N/A,,Scattered Clouds,30,2014-03-15 02:15:00
8:35 PM,39.2,21.2,49,29.80,10.0,NE,6.9,-,N/A,,Mostly Cloudy,40,2014-03-15 02:35:00
8:55 PM,39.2,21.2,49,29.80,10.0,NE,8.1,-,N/A,,Clear,40,2014-03-15 02:55:00
9:15 PM,39.2,21.2,49,29.81,10.0,NE,6.9,-,N/A,,Clear,40,2014-03-15 03:15:00
9:35 PM,39.2,23.0,52,29.81,10.0,NE,6.9,-,N/A,,Clear,50,2014-03-15 03:35:00
9:55 PM,39.2,23.0,52,29.81,10.0,ENE,6.9,-,N/A,,Clear,70,2014-03-15 03:55:00
10:15 PM,37.4,23.0,56,29.81,10.0,ENE,5.8,-,N/A,,Partly Cloudy,60,2014-03-15 04:15:00
10:35 PM,37.4,24.8,60,29.81,10.0,ENE,6.9,-,N/A,,Clear,60,2014-03-15 04:35:00
10:55 PM,37.4,24.8,60,29.81,10.0,ENE,3.5,-,N/A,,Partly Cloudy,60,2014-03-15 04:55:00
11:15 PM,37.4,24.8,60,29.81,10.0,NE,6.9,-,N/A,,Mostly Cloudy,50,2014-03-15 05:15:00
11:35 PM,37.4,24.8,60,29.81,10.0,ENE,5.8,-,N/A,,Partly Cloudy,60,2014-03-15 05:35:00
11:55 PM,37.4,23.0,56,29.82,10.0,NE,3.5,-,N/A,,Mostly Cloudy,40,2014-03-15 05:55:00